Regional Weather Roundup
Issued by NWS Boston, MA

Current Version | Previous Version | Text Only | Print | Product List | Glossary On
Versions: 1 2 3 4 5 6 7 8 9 10 11 12 13 14 15 16 17 18 19 20 21 22 23 24 25 26 27 28 29 30 31 32 33 34 35 36 37 38 39 40 41 42 43 44 45 46 47 48 49 50
000
ASUS41 KBOX 131710
RWRBOX

REGIONAL WEATHER ROUNDUP
NATIONAL WEATHER SERVICE TAUNTON MA
1200 PM EST SAT FEB 13 2016

NOTE:  "FAIR" INDICATES FEW OR NO CLOUDS BELOW 12,000 FEET WITH NO
SIGNIFICANT WEATHER AND/OR OBSTRUCTIONS TO VISIBILITY.  THE FOLLOWING
OBSERVATION LOCATIONS DO NOT REPORT PRESENT WEATHER...PROVINCETOWN...
SMITHFIELD...BLOCK ISLAND...KEENE...AND OXFORD.

MAZALL-131800-
EASTERN MASSACHUSETTS

CITY           SKY/WX    TMP DP  RH WIND       PRES   REMARKS
BOSTON         PTSUNNY   22  -2  35 W18G29    29.84R WCI   7
BEVERLY        PTSUNNY   24   1  36 NW20G25   29.81S WCI  10
LAWRENCE       MOSUNNY   21   1  41 W17G28    29.84S WCI   7
BEDFORD        PTSUNNY   20  -5  33 NW20G26   29.83F WCI   4
BLUE HILL        N/A     20   1  43 W13G28    29.78R WCI   7
NORWOOD        MOSUNNY   23  -1  35 W16G26    29.85R WCI  10
MARSHFIELD     NOT AVBL
PLYMOUTH       MOSUNNY   23   2  40 NW10G25   29.82S WCI  12
TAUNTON        CLOUDY    25  -1  32 NW14G21   29.83S WCI  13
NEW BEDFORD    MOSUNNY   23   0  36 NW16G30   29.83S WCI  10
$$

MAZALL-131800-
CAPE COD AND THE ISLANDS

CITY           SKY/WX    TMP DP  RH WIND       PRES   REMARKS
FALMOUTH       CLOUDY    23   7  50 NW16G24   29.81F WCI  10
HYANNIS        PTSUNNY   24  10  55 NW14G22   29.79S WCI  12
CHATHAM        CLOUDY    23  12  62 NW12G24   29.80S WCI  12
PROVINCETOWN   CLOUDY    24  10  55 NW21G28   29.80S WCI   9
NANTUCKET      PTSUNNY   26  13  57 NW20G26   29.81S WCI  12
MARTHAS VNYRD  MOSUNNY   25   6  44 NW17G25   29.82F WCI  12
$$

MAZALL-131800-
CENTRAL AND WESTERN MASSACHUSETTS

CITY           SKY/WX    TMP DP  RH WIND       PRES   REMARKS
WORCESTER      MOSUNNY   15  -6  39 W21G36    29.80R WCI  -2
FITCHBURG      PTSUNNY   20  -5  33 NW17G25   29.85S WCI   5
ORANGE         PTSUNNY   13  -8  39 NW22G36   29.89R WCI  -6
SPRINGFIELD    PTSUNNY   15  -3  43 NW18      29.92R WCI  -2
WESTFIELD      PTSUNNY   14  -3  47 NW21G32   29.95R WCI  -4
NORTH ADAMS    PTSUNNY    7 -13  39 W25G35    29.99R WCI -15
PITTSFIELD     SUNNY      6  -9  50 W24G39    29.89S WCI -16
$$

RIZALL-131800-
RHODE ISLAND

CITY           SKY/WX    TMP DP  RH WIND       PRES   REMARKS
PROVIDENCE     PTSUNNY   23  -2  33 W23G29    29.87S WCI   7
NEWPORT        PTSUNNY   23   1  38 NW18G31   29.85S WCI   9
BLOCK ISLAND   MOSUNNY   25   3  39 NW17G26   29.87S WCI  11
SMITHFIELD     PTSUNNY   19   0  42 NW16G22   29.83S WCI   5
WESTERLY       MOSUNNY   23  -3  32 W13G22    29.91R WCI  11
$$

CTZALL-131800-
CONNECTICUT

CITY           SKY/WX    TMP DP  RH WIND       PRES   REMARKS
BRADLEY INTL   PTSUNNY   18  -2  41 NW21G31   29.94R WCI   1
HARTFORD       CLOUDY    20  -4  34 W22G29    29.96S WCI   3
BRIDGEPORT     MOSUNNY   22  -2  35 W22G36    29.98R WCI   6
DANBURY        SUNNY     16 -10  31 W14G29    30.00R WCI   2
GROTON         PTSUNNY   21   3  45 NW17G30   29.91S WCI   7
NEW HAVEN      MOSUNNY   20   0  41 W12G30    29.97R WCI   8
CHESTER        FAIR      19   0  42 NW15G26   29.91S WCI   5
MERIDEN        MOSUNNY   21  -5  31 NW16G24   29.95S WCI   7
WILLIMANTIC    MOSUNNY   20  -2  38 NW18G30   29.92S WCI   5
OXFORD         MOSUNNY   18  -9  29 NW17G30   29.92S WCI   2
$$

MEZ002-015-021-024-NHZ003-005-008-011-012-014-VTZ005-008-131800-
NORTHERN NEW ENGLAND

CITY           SKY/WX    TMP DP  RH WIND       PRES   REMARKS
PORTLAND ME    MOSUNNY   20  10  65 NW13      29.77F WCI   7
BANGOR ME      SNOW      10   4  76 NW12      29.74F VSB 1/2 WCI  -5
CONCORD NH     PTSUNNY   17  -2  43 W15       29.84R WCI   2
MANCHESTER NH  PTSUNNY   21  -8  27 W14G23    29.82S WCI   8
NASHUA NH      MOSUNNY   21  -4  33 NW10      29.84S WCI  10
PORTSMOUTH NH  PTSUNNY   21  -1  38 W13G28    29.79S WCI   8
JAFFREY NH     PTSUNNY   14 -10  33 W12G21    29.80F WCI   0
KEENE NH       PTSUNNY   16  -9  32 W12G23    29.87S WCI   3
BURLINGTON VT  PTSUNNY   -1 -15  51 NW20      30.05R WCI -23
MT. WASHINGTON BLWGSNOW -13 -13 100 W32         N/A  VSB 1/8 WCI -44
$$

NYZ052-076-131800-
EASTERN NEW YORK

CITY           SKY/WX    TMP DP  RH WIND       PRES   REMARKS
ALBANY         MOSUNNY    8 -12  39 NW23G36   30.08R WCI -13
NEW YORK CITY  PTSUNNY   21  -3  35 W21G33    30.06R WCI   5
$$

ANZALL-131800-
MARINE OBSERVATIONS

STATION/POSITION TIME  TEMP    WIND        PRES    VSBY  WAVE
                       AIR SEA DIR/SP/G                  HT/PER
                 (UTC) (F)     (DEG/KT/KT) (MB)    (MI)  (FT/S)
BOSTON BUOY      1650   24 40  300/ 19/ 25 1009.1F         3/ 4
BUZZARDS BAY     1600          310/ 27/ 30 1011.0R
NANTUCKET SOUND  1650   25 38  300/ 19/ 25 1009.1F         3/ 4
MASS BAY-STELLWA 1604   24 41  300/ 23/ 29   N/A    1 3/8
ISLE OF SHOALS   1700   20     290/ 28/ 32 1007.4F
S OF BLOCK IS    NOT AVBL
$$

......................KEY.........................
  SKY/WX - SKY CONDITION/PRESENT WEATHER
  TMP    - TEMPERATURE IN FAHRENHEIT
  DWPT   - DEWPOINT IN FAHRENHEIT
  RH     - RELATIVE HUMIDITY IN PERCENT
  WIND   - DIRECTION AND SPEED IN MPH
  PRES   - MEAN SEA LEVEL PRESSURE IN INCHES OF HG
  WCI    - WIND CHILL INDEX
  VSB    - VISIBILITY IN MILES
  HX     - HEAT INDEX
  TC     - TEMPERATURE IN CELSIUS
  VRB    - VARIABLE WIND DIRECTION
  N/A    - NOT AVAILABLE



USA.gov is the U.S. government's official web portal to all federal, state and local government web resources and services.